KD2PO-13 Weather Reports


Display with metric or nautical units.
time (UTC)temp
F
wind
direction
speed
MPH
gust
MPH
rain 1hr
in
rain 24hr
in
rain mn
in
humidity
%
barometer
mb
20260504185226 70 213 11.0 20.0 0.00 0.00 0.00 35
20260504184726 70 204 5.0 17.0 0.00 0.00 0.00 39
20260504184226 70 255 8.0 16.0 0.00 0.00 0.00 38
20260504183727 70 249 6.0 15.0 0.00 0.00 0.00 37
20260504183227 69 232 8.0 18.0 0.00 0.00 0.00 37
20260504181727 68 304 6.0 16.0 0.00 0.00 0.00 40
20260504181227 68 252 5.0 16.0 0.00 0.00 0.00 41
20260504180727 68 244 7.0 18.0 0.00 0.00 0.00 41
20260504180227 68 280 9.0 19.0 0.00 0.00 0.00 41
20260504175727 68 272 11.0 19.0 0.00 0.00 0.00 39
20260504175227 68 210 5.0 22.0 0.00 0.00 0.00 45
20260504174727 68 245 11.0 22.0 0.00 0.00 0.00 40
20260504174227 68 212 8.0 16.0 0.00 0.00 0.00 41
20260504173727 67 215 8.0 18.0 0.00 0.00 0.00 42
20260504173228 67 273 10.0 18.0 0.00 0.00 0.00 41
20260504172226 67 228 7.0 18.0 0.00 0.00 0.00 45
20260504171726 67 229 5.0 19.0 0.00 0.00 0.00 45
20260504171226 67 245 9.0 19.0 0.00 0.00 0.00 43
20260504170726 67 225 6.0 20.0 0.00 0.00 0.00 45
20260504160226 64 228 8.0 17.0 0.00 0.00 0.00 46
20260504150727 60 251 8.0 16.0 0.00 0.00 0.00 48
20260504150227 60 277 8.0 24.0 0.00 0.00 0.00 50
20260504140726 57 234 7.0 16.0 0.00 0.00 0.00 49
20260504140226 57 247 8.0 15.0 0.00 0.00 0.00 51
20260504130727 54 232 8.0 23.0 0.00 0.00 0.00 52
20260504130226 54 267 13.0 23.0 0.00 0.00 0.00 50
20260504120227 49 237 5.0 13.0 0.00 0.00 0.00 57
20260504110226 48 232 7.0 17.0 0.00 0.00 0.00 57
20260504100227 0 0.0 0.0 0.00 0.00 0.00
20260504081726 0 0.0 0.0 0.00 0.00 0.00
20260504081226 0 0.0 0.0 0.00 0.00 0.00
20260504080726 0 0.0 0.0 0.00 0.00 0.00
20260504080226 0 0.0 0.0 0.00 0.00 0.00
20260504060226 49 249 5.0 14.0 0.00 0.00 0.00 53
20260504050726 49 244 4.0 11.0 0.00 0.00 0.00 52
20260504050226 49 237 4.0 10.0 0.00 0.00 0.00 52
20260504045725 49 239 2.0 5.0 0.00 0.00 0.00 52
20260504045225 49 213 2.0 6.0 0.00 0.00 0.00 52
20260504044726 50 246 1.0 6.0 0.00 0.00 0.00 51
20260504044226 50 239 1.0 6.0 0.00 0.00 0.00 51
20260504043225 50 211 1.0 7.0 0.00 0.00 0.00 51
20260504042725 50 0 0.0 5.0 0.00 0.00 0.00 50
20260504042226 50 222 1.0 5.0 0.00 0.00 0.00 50
20260504041726 50 0 0.0 8.0 0.00 0.00 0.00 49
20260504041226 50 0 0.0 8.0 0.00 0.00 0.00 49
20260504040726 51 251 1.0 5.0 0.00 0.00 0.00 48
20260504040225 51 0 0.0 4.0 0.00 0.00 0.00 48
20260504035726 51 228 1.0 4.0 0.00 0.00 0.00 48
20260504035226 51 0 0.0 3.0 0.00 0.00 0.00 48
20260504034726 51 0 0.0 2.0 0.00 0.00 0.00 49
20260504034225 51 0 0.0 1.0 0.00 0.00 0.00 48
20260504033726 51 0 0.0 3.0 0.00 0.00 0.00 48
20260504033226 51 0 0.0 6.0 0.00 0.00 0.00 48
20260504032726 51 256 1.0 6.0 0.00 0.00 0.00 48
20260504032226 51 0 0.0 4.0 0.00 0.00 0.00 48
20260504031725 52 0 0.0 5.0 0.00 0.00 0.00 48
20260504031225 52 0 0.0 5.0 0.00 0.00 0.00 48
20260504030725 52 0 0.0 5.0 0.00 0.00 0.00 48
20260504030226 52 276 1.0 5.0 0.00 0.00 0.00 48
20260504025726 52 276 2.0 5.0 0.00 0.00 0.00 49
20260504025225 52 286 1.0 5.0 0.00 0.00 0.00 49
20260504024726 52 284 2.0 5.0 0.00 0.00 0.00 49
20260504024225 52 288 2.0 6.0 0.00 0.00 0.00 49
20260504023226 52 289 2.0 10.0 0.00 0.00 0.00 48
20260504022726 52 298 3.0 13.0 0.00 0.00 0.00 48
20260504022225 53 299 6.0 13.0 0.00 0.00 0.00 47
20260504021726 53 292 5.0 14.0 0.00 0.00 0.00 47
20260504021225 52 292 8.0 16.0 0.00 0.00 0.00 46
20260504020726 52 302 5.0 16.0 0.00 0.00 0.00 46
20260504020226 52 282 7.0 15.0 0.00 0.00 0.00 46
20260504015725 52 293 6.0 11.0 0.00 0.00 0.00 46
20260504015225 52 302 4.0 8.0 0.00 0.00 0.00 47
20260504014725 52 293 2.0 8.0 0.00 0.00 0.00 47
20260504014226 52 279 4.0 8.0 0.00 0.00 0.00 47
20260504013726 52 285 4.0 11.0 0.00 0.00 0.00 47
20260504013226 52 286 6.0 11.0 0.00 0.00 0.00 47
20260504012725 52 279 4.0 11.0 0.00 0.00 0.00 48
20260504012225 52 296 5.0 21.0 0.00 0.00 0.00 48
20260504011725 52 278 8.0 21.0 0.00 0.00 0.00 48
20260504011226 52 290 10.0 17.0 0.00 0.00 0.00 48
20260504010726 52 302 6.0 16.0 0.00 0.00 0.00 48
20260504010226 52 295 7.0 18.0 0.00 0.00 0.00 47
20260504005725 53 316 10.0 18.0 0.00 0.00 0.00 46
20260504005225 53 316 5.0 19.0 0.00 0.00 0.00 44
20260504004726 53 282 11.0 19.0 0.00 0.00 0.00 44
20260504004226 53 295 6.0 18.0 0.00 0.00 0.00 44
20260504003725 53 291 9.0 18.0 0.00 0.00 0.00 44
20260504003225 52 274 8.0 18.0 0.00 0.00 0.00 45
20260504002725 52 283 1.0 7.0 0.00 0.00 0.00 47
20260504002225 52 0 0.0 5.0 0.00 0.00 0.00 47
20260504001726 52 229 2.0 6.0 0.00 0.00 0.00 47
20260504001225 52 232 1.0 6.0 0.00 0.00 0.00 47
20260504000725 52 0 0.0 6.0 0.00 0.00 0.00 46
20260503235725 53 305 1.0 10.0 0.00 0.00 0.00 46
20260503235225 53 283 5.0 20.0 0.00 0.00 0.00 46
20260503234726 53 276 9.0 20.0 0.00 0.00 0.00 46
20260503234225 53 301 5.0 17.0 0.00 0.00 0.00 45
20260503233725 53 289 8.0 17.0 0.00 0.00 0.00 45
20260503233225 53 318 4.0 20.0 0.00 0.00 0.00 46
20260503232725 53 331 13.0 24.0 0.00 0.00 0.00 46
20260503232225 53 311 10.0 24.0 0.00 0.00 0.00 45
20260503231226 53 299 11.0 24.0 0.00 0.00 0.00 45
20260503230725 53 259 13.0 22.0 0.00 0.00 0.00 44
20260503225725 53 276 3.0 13.0 0.00 0.00 0.00 47
20260503224726 53 259 2.0 9.0 0.00 0.00 0.00 47
20260503224225 54 283 4.0 15.0 0.00 0.00 0.00 46
20260503223725 54 288 7.0 15.0 0.00 0.00 0.00 45
20260503223225 54 277 5.0 10.0 0.00 0.00 0.00 46
20260503222725 54 271 4.0 12.0 0.00 0.00 0.00 45
20260503222225 54 280 5.0 12.0 0.00 0.00 0.00 45
20260503221725 53 292 5.0 11.0 0.00 0.00 0.00 45
20260503221225 53 290 6.0 10.0 0.00 0.00 0.00 45
20260503220726 53 284 4.0 12.0 0.00 0.00 0.00 46
20260503215725 53 294 3.0 9.0 0.00 0.00 0.00 47
20260503214725 53 291 4.0 10.0 0.00 0.00 0.00 45
20260503214225 53 268 4.0 8.0 0.00 0.00 0.00 47
20260503213725 53 293 3.0 9.0 0.00 0.00 0.00 47
20260503212725 53 276 4.0 11.0 0.00 0.00 0.00 46
20260503212225 53 286 3.0 17.0 0.00 0.00 0.00 48
20260503211725 53 288 6.0 17.0 0.00 0.00 0.00 46
20260503211225 53 289 4.0 11.0 0.00 0.00 0.00 47
20260503210725 53 313 3.0 10.0 0.00 0.00 0.00 48
20260503210225 52 323 3.0 12.0 0.00 0.00 0.00 47
20260503205725 53 305 3.0 12.0 0.00 0.00 0.00 47
20260503205225 53 317 5.0 16.0 0.00 0.00 0.00 47
20260503204725 54 287 9.0 16.0 0.00 0.00 0.00 45
20260503204226 53 308 5.0 12.0 0.00 0.00 0.00 48
20260503203725 53 296 6.0 12.0 0.00 0.00 0.00 47
20260503202724 52 307 5.0 17.0 0.00 0.00 0.00 46
20260503201725 51 296 5.0 14.0 0.00 0.00 0.00 49
20260503200725 52 311 4.0 16.0 0.00 0.00 0.00 48
20260503200225 52 312 8.0 15.0 0.00 0.00 0.00 46
20260503195225 52 303 6.0 15.0 0.00 0.00 0.00 48
20260503194724 52 300 4.0 14.0 0.00 0.00 0.00 49
20260503194225 52 311 9.0 19.0 0.00 0.00 0.00 45
20260503193225 52 301 9.0 17.0 0.00 0.00 0.00 45
20260503192725 51 301 7.0 17.0 0.00 0.00 0.00 47
20260503192225 51 321 4.0 17.0 0.00 0.00 0.00 47
20260503191725 52 291 9.0 17.0 0.00 0.00 0.00 45
20260503191224 52 308 6.0 12.0 0.00 0.00 0.00 45
20260503190724 52 334 5.0 16.0 0.00 0.00 0.00 48
20260503185725 51 326 6.0 14.0 0.00 0.00 0.00 48